DW7854 Weather Reports


Display with metric or nautical units.
time (UTC)temp
F
wind
direction
speed
MPH
gust
MPH
rain 1hr
in
rain 24hr
in
rain mn
in
humidity
%
barometer
mb
20260904133205 78 158 1.0 3.0 0.00 0.00 0.00 90 1014.4
20260904133004 78 171 1.0 3.0 0.00 0.00 0.00 91 1014.1
20260904132306 77 0 0.0 0.0 0.00 0.00 0.00 93 1014.4
20260904131606 76 27 0.0 1.0 0.00 0.00 0.00 93 1014.0
20260904131405 76 27 0.0 1.0 0.00 0.00 0.00 93 1014.3
20260904130005 74 27 0.0 1.0 0.00 0.00 0.00 94 1013.9
20260904125604 74 0 0.0 0.0 0.00 0.00 0.00 94 1014.1
20260904124705 74 0 0.0 0.0 0.00 0.00 0.00 94 1014.0
20260904124506 73 27 0.0 0.0 0.00 0.00 0.00 94 1013.8
20260904123805 74 0 0.0 0.0 0.00 0.00 0.00 94 1014.0
20260904123106 73 27 0.0 1.0 0.00 0.00 0.00 93 1013.6
20260904122905 74 27 0.0 1.0 0.00 0.00 0.00 93 1013.8
20260904122005 74 0 0.0 0.0 0.00 0.00 0.00 93 1013.8
20260904121508 73 27 0.0 1.0 0.00 0.00 0.00 93 1013.5
20260904120009 73 27 0.0 0.0 0.00 0.00 0.00 93 1013.3
20260904115306 74 27 0.0 1.0 0.00 0.00 0.00 93 1013.6
20260904114504 73 27 0.0 1.0 0.00 0.00 0.00 93 1013.3
20260904114404 74 25 0.0 1.0 0.00 0.00 0.00 93 1013.6
20260904113505 74 0 0.0 0.0 0.00 0.00 0.00 92 1013.7
20260904113005 74 156 0.0 0.0 0.00 0.00 0.00 92 1013.4
20260904112605 74 0 0.0 0.0 0.00 0.00 0.00 92 1013.7
20260904111705 74 0 0.0 0.0 0.00 0.00 0.00 92 1013.6
20260904110804 74 0 0.0 0.0 0.00 0.00 0.00 92 1013.6
20260904110104 74 156 0.0 0.0 0.00 0.00 0.00 92 1013.3
20260904105905 74 0 0.0 0.0 0.00 0.00 0.00 92 1013.6
20260904105005 74 0 0.0 0.0 0.00 0.00 0.00 92 1013.6
20260904104606 74 156 0.0 0.0 0.00 0.00 0.00 92 1013.4
20260904104104 74 0 0.0 0.0 0.00 0.00 0.00 92 1013.7
20260904103205 74 0 0.0 0.0 0.00 0.00 0.00 92 1013.5
20260904103005 74 156 0.0 0.0 0.00 0.00 0.00 92 1013.2
20260904102306 74 0 0.0 0.0 0.00 0.00 0.00 92 1013.4
20260904101505 74 156 0.0 0.0 0.00 0.00 0.00 92 1013.1
20260904101404 74 0 0.0 0.0 0.00 0.00 0.00 92 1013.4
20260904100504 74 0 0.0 0.0 0.00 0.00 0.00 91 1013.4
20260904100104 74 156 0.0 0.0 0.00 0.00 0.00 91 1013.2
20260904095605 75 0 0.0 0.0 0.00 0.00 0.00 91 1013.4
20260904094704 75 0 0.0 0.0 0.00 0.00 0.00 91 1013.3
20260904094503 74 156 0.0 0.0 0.00 0.00 0.00 91 1012.9
20260904093804 75 0 0.0 0.0 0.00 0.00 0.00 91 1013.0
20260904093110 74 156 0.0 0.0 0.00 0.00 0.00 91 1012.7
20260904092905 75 0 0.0 0.0 0.00 0.00 0.00 90 1013.0
20260904092004 75 0 0.0 0.0 0.00 0.00 0.00 91 1012.8
20260904091505 74 156 0.0 0.0 0.00 0.00 0.00 90 1012.6
20260904090005 75 156 0.0 0.0 0.00 0.00 0.00 90 1012.4
20260904085306 75 0 0.0 0.0 0.00 0.00 0.00 90 1012.6
20260904084604 75 156 0.0 0.0 0.00 0.00 0.00 90 1012.4
20260904083505 75 0 0.0 0.0 0.00 0.00 0.00 90 1012.5
20260904083004 75 156 0.0 0.0 0.00 0.00 0.00 90 1012.3
20260904081705 75 0 0.0 0.0 0.00 0.00 0.00 90 1012.5
20260904081603 75 156 0.0 0.0 0.00 0.00 0.00 90 1012.3
20260904080805 75 0 0.0 0.0 0.00 0.00 0.00 89 1012.6
20260904080011 75 156 0.0 0.0 0.00 0.00 0.00 89 1012.3
20260904075905 76 0 0.0 0.0 0.00 0.00 0.00 89 1012.6
20260904075004 76 0 0.0 0.0 0.00 0.00 0.00 89 1012.5
20260904074506 75 156 0.0 0.0 0.00 0.00 0.00 89 1012.3
20260904074105 76 0 0.0 0.0 0.00 0.00 0.00 89 1012.5
20260904073204 76 0 0.0 0.0 0.00 0.00 0.00 88 1012.5
20260904073106 75 156 0.0 0.0 0.00 0.00 0.00 88 1012.2
20260904071604 76 156 0.0 0.0 0.00 0.00 0.00 88 1012.2
20260904071404 76 0 0.0 0.0 0.00 0.00 0.00 88 1012.5
20260904070504 76 0 0.0 0.0 0.00 0.00 0.00 88 1012.5
20260904070012 76 156 0.0 0.0 0.00 0.00 0.00 87 1012.3
20260904064704 76 0 0.0 0.0 0.00 0.00 0.00 87 1012.6
20260904064604 76 156 0.0 0.0 0.00 0.00 0.00 87 1012.2
20260904063804 77 0 0.0 0.0 0.00 0.00 0.00 87 1012.5
20260904063105 76 156 0.0 0.0 0.00 0.00 0.00 86 1012.3
20260904062904 77 0 0.0 0.0 0.00 0.00 0.00 86 1012.5
20260904062004 77 0 0.0 0.0 0.00 0.00 0.00 86 1012.6
20260904061603 77 156 0.0 0.0 0.00 0.00 0.00 86 1012.3
20260904061104 77 0 0.0 0.0 0.00 0.00 0.00 85 1012.6
20260904060204 77 0 0.0 0.0 0.00 0.00 0.00 85 1012.5
20260904060004 77 156 0.0 0.0 0.00 0.00 0.00 85 1012.2
20260904055306 78 0 0.0 0.0 0.00 0.00 0.00 85 1012.5
20260904054515 77 156 0.0 0.0 0.00 0.00 0.00 84 1012.2
20260904053504 78 0 0.0 0.0 0.00 0.00 0.00 84 1012.4
20260904053106 78 156 0.0 0.0 0.00 0.00 0.00 84 1012.1
20260904052604 79 0 0.0 0.0 0.00 0.00 0.00 83 1012.4
20260904051705 79 0 0.0 0.0 0.00 0.00 0.00 83 1012.3
20260904051625 78 156 0.0 0.0 0.00 0.00 0.00 83 1012.0
20260904050109 79 156 0.0 0.0 0.00 0.00 0.00 81 1011.9
20260904045904 80 0 0.0 0.0 0.00 0.00 0.00 81 1012.2
20260904045004 80 0 0.0 0.0 0.00 0.00 0.00 80 1012.2
20260904044508 80 156 0.0 0.0 0.00 0.00 0.00 80 1011.9
20260904044105 80 0 0.0 0.0 0.00 0.00 0.00 80 1012.1
20260904043204 81 0 0.0 0.0 0.00 0.00 0.00 79 1012.2
20260904043005 81 156 0.0 0.0 0.00 0.00 0.00 79 1011.9
20260904042306 81 0 0.0 0.0 0.00 0.00 0.00 78 1012.2
20260904041504 81 156 0.0 0.0 0.00 0.00 0.00 77 1011.9
20260904041404 82 0 0.0 0.0 0.00 0.00 0.00 77 1012.1
20260904040504 82 0 0.0 0.0 0.00 0.00 0.00 77 1012.1
20260904040103 82 156 0.0 0.0 0.00 0.00 0.00 76 1011.9
20260904035604 82 0 0.0 0.0 0.00 0.00 0.00 76 1012.2
20260904034705 83 0 0.0 0.0 0.00 0.00 0.00 75 1012.1
20260904034505 82 156 0.0 0.0 0.00 0.00 0.00 75 1011.8
20260904033804 83 0 0.0 0.0 0.00 0.00 0.00 75 1012.1
20260904033105 83 156 0.0 0.0 0.00 0.00 0.00 74 1011.8
20260904032904 84 0 0.0 0.0 0.00 0.00 0.00 73 1012.1
20260904032004 84 156 0.0 1.0 0.00 0.00 0.00 73 1012.1
20260904031508 84 156 0.0 0.0 0.00 0.00 0.00 72 1011.9
20260904031104 85 0 0.0 0.0 0.00 0.00 0.00 72 1012.2
20260904030204 85 156 0.0 1.0 0.00 0.00 0.00 70 1012.3
20260904030109 85 156 0.0 1.0 0.00 0.00 0.00 70 1012.0
20260904024611 85 156 0.0 2.0 0.00 0.00 0.00 70 1011.9
20260904024404 86 155 1.0 2.0 0.00 0.00 0.00 70 1012.2
20260904023504 86 155 1.0 3.0 0.00 0.00 0.00 69 1012.0
20260904023107 85 156 0.0 2.0 0.00 0.00 0.00 69 1011.6
20260904022604 86 156 0.0 1.0 0.00 0.00 0.00 69 1011.9
20260904021704 86 156 0.0 4.0 0.00 0.00 0.00 68 1011.7
20260904021605 86 156 0.0 4.0 0.00 0.00 0.00 67 1011.4
20260904020004 87 156 1.0 4.0 0.00 0.00 0.00 67 1011.2
20260904015904 87 155 2.0 4.0 0.00 0.00 0.00 67 1011.5
20260904014616 87 141 2.0 4.0 0.00 0.00 0.00 66 1011.0
20260904014104 88 159 3.0 4.0 0.00 0.00 0.00 65 1011.2
20260904013204 88 149 3.0 6.0 0.00 0.00 0.00 64 1011.1
20260904013107 88 139 2.0 6.0 0.00 0.00 0.00 64 1010.7
20260904012306 88 146 3.0 7.0 0.00 0.00 0.00 64 1010.9
20260904011603 88 147 1.0 5.0 0.00 0.00 0.00 63 1010.6
20260904011404 89 148 3.0 5.0 0.00 0.00 0.00 63 1010.9
20260904010504 89 154 2.0 5.0 0.00 0.00 0.00 62 1010.8
20260904010004 90 158 1.0 4.0 0.00 0.00 0.00 61 1010.4
20260904005604 90 132 1.0 3.0 0.00 0.00 0.00 61 1010.5
20260904004704 91 148 2.0 3.0 0.00 0.00 0.00 60 1010.6
20260904004505 90 132 1.0 3.0 0.00 0.00 0.00 60 1010.3
20260904003804 91 150 2.0 4.0 0.00 0.00 0.00 59 1010.6
20260904003105 91 150 1.0 5.0 0.00 0.00 0.00 59 1010.2
20260904002904 92 151 2.0 4.0 0.00 0.00 0.00 59 1010.5
20260904002004 92 149 3.0 5.0 0.00 0.00 0.00 58 1010.5
20260904001104 92 147 3.0 5.0 0.00 0.00 0.00 57 1010.5
20260904000204 93 146 4.0 6.0 0.00 0.00 0.00 56 1010.4
20260904000104 92 163 3.0 6.0 0.00 0.00 0.00 56 1010.2
20260903235305 93 157 4.0 7.0 0.00 0.00 0.00 56 1010.4
20260903234614 93 155 4.0 10.0 0.00 0.00 0.00 55 1010.2
20260903234404 94 142 4.0 8.0 0.00 0.00 0.00 54 1010.5
20260903233504 94 121 5.0 9.0 0.00 0.00 0.00 53 1010.5
20260903233003 94 87 5.0 10.0 0.00 0.00 0.00 53 1010.3
20260903232604 95 125 3.0 10.0 0.00 0.00 0.00 52 1010.5
20260903231704 95 145 4.0 7.0 0.00 0.00 0.00 52 1010.5
20260903231508 95 181 3.0 8.0 0.00 0.00 0.00 52 1010.2
20260903230804 96 150 5.0 11.0 0.00 0.00 0.00 51 1010.5
20260903230107 95 105 5.0 11.0 0.00 0.00 0.00 51 1010.2
20260903225904 96 139 5.0 11.0 0.00 0.00 0.00 50 1010.5
20260903225004 96 149 6.0 10.0 0.00 0.00 0.00 50 1010.5
20260903224604 96 161 6.0 10.0 0.00 0.00 0.00 50 1010.3
20260903224104 96 138 4.0 10.0 0.00 0.00 0.00 49 1010.5
20260903223204 96 128 5.0 9.0 0.00 0.00 0.00 50 1010.5
20260903223104 96 130 3.0 9.0 0.00 0.00 0.00 50 1010.3
20260903222306 96 144 5.0 9.0 0.00 0.00 0.00 50 1010.6
20260903221505 96 161 5.0 9.0 0.00 0.00 0.00 49 1010.3
20260903221404 96 140 4.0 9.0 0.00 0.00 0.00 51 1010.6
20260903220006 96 140 6.0 10.0 0.00 0.00 0.00 50 1010.5
20260903215604 96 149 5.0 10.0 0.00 0.00 0.00 51 1010.8
20260903214704 96 150 5.0 10.0 0.00 0.00 0.00 52 1010.9
20260903214513 95 111 3.0 10.0 0.00 0.00 0.00 52 1010.7
20260903213804 96 144 5.0 11.0 0.00 0.00 0.00 52 1011.0
20260903213004 96 217 4.0 8.0 0.00 0.00 0.00 50 1010.8
20260903212904 97 140 3.0 8.0 0.00 0.00 0.00 51 1011.1
20260903211506 96 130 5.0 11.0 0.00 0.00 0.00 53 1011.0
20260903211104 96 145 6.0 11.0 0.00 0.00 0.00 55 1011.4
20260903210204 96 163 7.0 11.0 0.00 0.00 0.00 54 1011.5
20260903210008 95 163 6.0 11.0 0.00 0.00 0.00 53 1011.1
20260903205306 95 146 5.0 9.0 0.00 0.00 0.00 54 1011.5
20260903204504 94 148 5.0 9.0 0.00 0.00 0.00 55 1011.3
20260903204404 95 159 6.0 11.0 0.00 0.00 0.00 55 1011.6
20260903203008 94 97 5.0 11.0 0.00 0.00 0.00 55 1011.5
20260903201704 97 168 6.0 12.0 0.00 0.00 0.00 54 1011.9
20260903201504 96 138 5.0 11.0 0.00 0.00 0.00 53 1011.6
20260903200804 96 168 5.0 12.0 0.00 0.00 0.00 56 1012.0
20260903200006 94 175 4.0 12.0 0.00 0.00 0.00 57 1011.8
20260903195904 94 156 4.0 8.0 0.00 0.00 0.00 58 1012.1
20260903195004 94 144 5.0 11.0 0.00 0.00 0.00 57 1012.2
20260903194603 94 140 4.0 11.0 0.00 0.00 0.00 58 1011.9
20260903194104 94 139 4.0 11.0 0.00 0.00 0.00 60 1012.3
20260903193204 93 149 6.0 11.0 0.00 0.00 0.00 61 1012.5
20260903193009 92 132 3.0 11.0 0.00 0.00 0.00 60 1012.2
20260903192306 94 168 5.0 11.0 0.00 0.00 0.00 60 1012.6
20260903191603 93 208 5.0 10.0 0.00 0.00 0.00 61 1012.3
20260903191404 93 154 5.0 10.0 0.00 0.00 0.00 61 1012.7
20260903190504 94 155 5.0 11.0 0.00 0.00 0.00 59 1012.8
20260903190006 93 181 5.0 12.0 0.00 0.00 0.00 59 1012.6
20260903185604 94 153 7.0 12.0 0.00 0.00 0.00 59 1013.0
20260903184508 93 128 4.0 11.0 0.00 0.00 0.00 59 1012.7
20260903183804 95 161 7.0 13.0 0.00 0.00 0.00 59 1013.1
20260903183103 94 142 7.0 14.0 0.00 0.00 0.00 59 1012.9
20260903182904 94 160 6.0 14.0 0.00 0.00 0.00 60 1013.2
20260903182004 94 162 6.0 12.0 0.00 0.00 0.00 60 1013.3
20260903181604 93 156 5.0 12.0 0.00 0.00 0.00 62 1013.0
20260903181104 93 151 7.0 13.0 0.00 0.00 0.00 62 1013.4
20260903180204 92 138 5.0 9.0 0.00 0.00 0.00 62 1013.5
20260903180106 92 136 4.0 9.0 0.00 0.00 0.00 64 1013.2
20260903175306 92 142 5.0 9.0 0.00 0.00 0.00 62 1013.6
20260903174504 92 140 5.0 10.0 0.00 0.00 0.00 63 1013.5
20260903174404 93 163 7.0 10.0 0.00 0.00 0.00 62 1013.7
20260903173504 92 167 5.0 13.0 0.00 0.00 0.00 63 1013.9
20260903173013 92 174 2.0 8.0 0.00 0.00 0.00 63 1013.7
20260903172604 92 152 5.0 9.0 0.00 0.00 0.00 62 1014.1
20260903171704 92 171 6.0 12.0 0.00 0.00 0.00 63 1014.2
20260903171508 92 184 6.0 12.0 0.00 0.00 0.00 64 1013.9
20260903170804 91 176 4.0 10.0 0.00 0.00 0.00 65 1014.3
20260903170105 90 146 5.0 10.0 0.00 0.00 0.00 67 1014.0
20260903165904 91 145 4.0 9.0 0.00 0.00 0.00 67 1014.3
20260903165004 90 149 3.0 8.0 0.00 0.00 0.00 68 1014.6
20260903164607 89 122 3.0 8.0 0.00 0.00 0.00 69 1014.1
20260903164104 90 165 5.0 8.0 0.00 0.00 0.00 67 1014.6
20260903163204 90 138 5.0 10.0 0.00 0.00 0.00 67 1014.7
20260903163002 90 115 4.0 10.0 0.00 0.00 0.00 68 1014.4
20260903162306 90 159 5.0 9.0 0.00 0.00 0.00 68 1014.6
20260903161503 89 163 5.0 10.0 0.00 0.00 0.00 69 1014.4
20260903161404 89 145 5.0 10.0 0.00 0.00 0.00 70 1014.7
20260903160504 88 174 4.0 9.0 0.00 0.00 0.00 71 1014.7
20260903160003 88 177 4.0 12.0 0.00 0.00 0.00 70 1014.3
20260903155604 88 158 5.0 12.0 0.00 0.00 0.00 71 1014.7
20260903154704 86 147 4.0 8.0 0.00 0.00 0.00 73 1014.6
20260903154503 86 136 3.0 8.0 0.00 0.00 0.00 73 1014.4
20260903153804 87 166 5.0 9.0 0.00 0.00 0.00 73 1014.6
20260903153003 87 194 4.0 10.0 0.00 0.00 0.00 72 1014.3
20260903152904 87 159 6.0 10.0 0.00 0.00 0.00 72 1014.5
20260903152004 87 144 5.0 9.0 0.00 0.00 0.00 73 1014.5
20260903151505 86 159 6.0 9.0 0.00 0.00 0.00 73 1014.1
20260903151104 87 158 5.0 8.0 0.00 0.00 0.00 72 1014.5
20260903150204 87 139 4.0 10.0 0.00 0.00 0.00 74 1014.5
20260903150003 86 177 4.0 8.0 0.00 0.00 0.00 74 1014.2
20260903145306 86 147 4.0 7.0 0.00 0.00 0.00 73 1014.6
20260903144505 86 163 3.0 8.0 0.00 0.00 0.00 75 1014.3
20260903144404 86 169 3.0 7.0 0.00 0.00 0.00 75 1014.6
20260903143504 85 169 3.0 6.0 0.00 0.00 0.00 76 1014.7
20260903143006 84 135 3.0 6.0 0.00 0.00 0.00 77 1014.3
20260903142604 85 158 3.0 6.0 0.00 0.00 0.00 77 1014.7
20260903141704 84 148 2.0 7.0 0.00 0.00 0.00 80 1014.8
20260903141506 83 144 1.0 7.0 0.00 0.00 0.00 80 1014.5
20260903140804 83 151 3.0 7.0 0.00 0.00 0.00 83 1014.8
20260903140103 82 205 3.0 5.0 0.00 0.00 0.00 84 1014.6
20260903135904 82 167 3.0 5.0 0.00 0.00 0.00 84 1014.9
20260903135004 81 136 2.0 5.0 0.00 0.00 0.00 86 1014.9
20260903134505 80 86 1.0 5.0 0.00 0.00 0.00 86 1014.7
20260903134104 80 143 2.0 5.0 0.00 0.00 0.00 87 1015.0